Tracking 27107 objects as of 22-Mar-2023
HD Live streaming from Space Station
objects crossing your sky now

SL-12 R/B(AUX MOTOR)

Track SL-12 R/B(AUX MOTOR) now!
10-day predictions


NORAD ID: 16446
Int'l Code: 1985-118L
Perigee: 591.7 km
Apogee: 18,125.8 km
Inclination: 65.2 °
Period: 327.2 minutes
Semi major axis: 15729 km
RCS: 0.6158 m2 (medium)
Launch date: December 24, 1985
Source: Commonwealth of Independent States (former USSR) (CIS)
Launch site: TYURATAM MISSILE AND SPACE COMPLEX (TTMTR)

Note: This is a ROCKET BODY
Your satellite tracking list
Your tracking list is empty




NASA's NSSDC Master Catalog

Two Line Element Set (TLE):
1 16446U 85118L   23080.26327755  .00000115  00000-0  49210-3 0  9990
2 16446  65.2174  62.7208 5573527  66.8171 341.2713  4.40068177585709
Source of the keplerian elements: AFSPC